Location: Mentone
(34.5413°N, 85.5351°W)
Time: 08:45:37
(UTC-05:00)

Tiros 1 despin weight - Visible Passes

Search period start: 28 May 2016 00:00
Search period end: 07 June 2016 00:00
Orbit: 595 x 645 km, 48.2° (Epoch: 28 May)

Date Brightness Start Highest point End Pass type
(mag) Time Alt. Az. Time Alt. Az. Time Alt. Az.
28 May ? 01:39:18 20° NNW 01:40:10 21° NNW 01:43:41 10° NNE visible
28 May ? 03:20:32 10° NNW 03:23:10 15° N 03:25:46 10° NE visible
28 May ? 05:02:06 10° NW 05:06:01 26° NNE 05:09:52 10° E visible
29 May ? 00:17:49 22° NNE 00:17:49 22° NNE 00:19:44 10° NE visible
29 May ? 01:55:01 10° NW 01:57:58 16° N 02:00:55 10° NNE visible
29 May ? 03:38:01 10° NNW 03:41:02 17° N 03:44:02 10° NE visible
30 May ? 00:33:01 25° NNW 00:33:01 25° NNW 00:36:49 10° NE visible
30 May ? 02:13:12 10° NW 02:15:51 15° N 02:18:29 10° NNE visible
30 May ? 03:55:13 10° NNW 03:58:50 22° NNE 04:02:24 10° ENE visible
30 May ? 23:10:17 30° NNE 23:10:17 30° NNE 23:12:51 10° NE visible
31 May ? 00:47:25 10° WNW 00:50:42 18° NNW 00:53:58 10° NNE visible
31 May ? 02:30:57 10° NNW 02:33:45 16° N 02:36:32 10° NE visible
31 May ? 04:12:18 10° NW 04:16:29 33° NNE 04:20:36 10° E visible
31 May ? 21:39:21 10° SW 21:43:57 56° SE 21:48:33 10° ENE visible
31 May ? 23:21:35 10° W 23:25:46 31° NNW 23:29:58 10° NE visible
01 Jun ? 01:05:46 10° NW 01:08:33 15° N 01:11:20 10° NNE visible
01 Jun ? 02:48:17 10° NNW 02:51:35 19° NNE 02:54:53 10° ENE visible
01 Jun ? 04:29:25 10° NW 04:33:59 57° NE 04:38:27 10° ESE visible
01 Jun ? 20:16:51 10° S 20:19:59 18° SE 20:23:09 10° E visible
01 Jun ? 21:56:31 10° WSW 22:01:13 73° NW 22:05:55 10° NE visible
01 Jun ? 23:39:50 10° WNW 23:43:27 21° NNW 23:47:03 10° NNE visible
02 Jun ? 01:23:45 10° NNW 01:26:27 15° N 01:29:08 10° NE visible
02 Jun ? 03:05:24 10° NW 03:09:20 26° NNE 03:13:12 10° E visible
02 Jun ? 04:46:42 10° NW 04:51:18 73° SW 04:55:48 10° SE visible
02 Jun ? 20:32:42 10° SSW 20:37:01 37° SE 20:41:23 10° ENE visible
02 Jun ? 22:14:12 10° W 22:18:38 40° NNW 22:23:05 10° NE visible
02 Jun ? 23:58:12 10° NW 00:01:15 17° N 00:04:16 10° NNE visible
03 Jun ? 01:41:17 10° NNW 01:44:20 17° N 01:47:21 10° NE visible
03 Jun ? 03:22:29 10° NW 03:26:54 42° NNE 03:31:15 10° ESE visible
03 Jun ? 20:49:31 10° SW 20:54:12 79° SE 20:58:55 10° NE visible
03 Jun ? 22:32:17 10° W 22:36:14 26° NNW 22:40:10 10° NE visible
04 Jun ? 00:16:25 10° NW 00:19:08 15° N 00:21:50 10° NNE visible
04 Jun ? 01:58:29 10° NNW 02:02:07 22° NNE 02:05:42 10° ENE visible
04 Jun ? 03:39:40 10° NW 03:44:19 78° NE 03:48:53 10° ESE visible
04 Jun ? 21:06:56 10° WSW 21:11:33 54° NNW 21:16:10 10° NE visible
04 Jun ? 22:50:37 10° WNW 22:53:57 19° NNW 22:57:18 10° NNE visible
05 Jun ? 00:34:11 10° NNW 00:37:02 16° N 00:39:50 10° NE visible
05 Jun ? 02:15:35 10° NW 02:19:46 32° NNE 02:23:55 10° E visible
05 Jun ? 03:57:03 10° WNW 04:01:34 51° SW 04:05:58 10° SSE visible
05 Jun ? 21:24:49 10° W 21:29:02 32° NNW 21:33:17 10° NE visible
05 Jun ? 23:08:57 10° NW 23:11:49 16° N 23:14:39 10° NNE visible
06 Jun ? 00:51:32 10° NNW 00:54:52 19° NNE 00:58:10 10° ENE visible
06 Jun ? 02:32:41 10° NW 02:37:17 55° NNE 02:41:48 10° ESE visible
06 Jun ? 04:14:56 10° WNW 04:18:39 24° SW 04:22:19 10° S visible
06 Jun ? 21:43:02 10° WNW 21:46:42 22° NNW 21:50:22 10° NNE visible
06 Jun ? 23:26:58 10° NW 23:29:42 15° N 23:32:25 10° NE visible
